Theta_e
315 318 319 319 318 317 318 317 317 318 318 318 319 320 319 319 318 317 318 318 318 317 317 317 317 316 316 316 315 315 315 316 316 316 316 317 318 317 314 313 311 311 310 308 307 305 304 304 303 303 304 304 304 305 305 306 307 308 309 311 313 312 313 315 317 319 320 321 321 321 321 321 321 322 322 322 323 323 323 322 322 321 320 320 320 319
316 319 321 319 317 317 318 319 319 319 318 318 319 319 319 319 318 317 318 318 317 317 317 317 317 316 316 316 315 315 316 317 316 316 316 316 315 314 313 312 311 310 309 307 306 305 303 302 302 302 302 303 303 303 304 304 305 306 308 309 310 311 311 312 314 317 318 318 319 319 319 319 319 320 320 320 320 321 321 320 320 319 319 318 318 318
320 320 319 318 317 318 318 318 319 319 319 319 319 320 320 319 318 318 318 317 316 315 317 317 316 317 316 315 315 316 316 317 316 316 315 313 313 312 311 310 309 308 307 306 304 304 303 302 301 301 301 301 302 302 302 303 304 305 306 307 307 308 309 309 311 312 314 315 316 316 316 317 318 317 318 318 318 318 318 318 318 317 317 316 316 316
322 320 318 317 317 318 318 318 319 319 319 319 320 319 320 319 319 319 318 317 316 315 317 317 317 316 316 316 316 317 317 316 314 314 313 312 312 311 310 308 307 306 306 305 303 303 302 301 300 300 301 301 301 301 301 301 302 303 304 305 305 306 307 307 308 309 310 312 313 313 313 314 314 314 314 314 314 314 315 315 315 315 315 314 314 314
321 320 319 318 318 319 319 320 320 320 319 320 321 321 320 319 320 320 319 318 317 317 318 318 320 320 319 320 319 319 318 314 312 312 311 312 311 310 309 307 306 305 305 304 303 302 301 300 300 300 300 300 300 300 300 300 300 301 302 303 303 304 305 305 306 307 308 309 309 310 310 310 310 310 310 310 310 310 311 311 311 311 311 312 312 312
319 319 320 319 319 320 320 320 320 321 320 320 322 323 321 319 321 321 321 320 319 321 321 320 324 324 322 322 322 321 318 312 312 311 310 310 310 309 308 307 306 305 304 303 302 301 300 299 299 299 299 299 300 300 299 299 299 299 300 301 301 302 303 304 305 306 306 307 307 308 308 308 308 308 308 309 309 309 309 309 309 309 309 309 309 310
318 318 320 321 320 321 322 321 320 321 320 320 323 326 323 320 321 322 321 321 321 321 319 319 323 323 321 321 322 321 316 311 312 311 310 309 308 307 307 306 305 304 303 302 301 300 299 299 298 298 298 298 299 299 299 299 298 298 299 299 300 300 302 303 303 304 305 305 306 306 306 306 306 306 306 307 307 307 307 307 307 307 307 307 306 307
318 319 321 320 320 322 323 321 321 320 320 322 322 322 322 319 320 321 320 320 320 319 318 319 320 322 322 321 321 321 314 311 311 310 310 309 307 307 305 305 304 303 302 301 301 300 299 298 298 298 297 297 298 298 298 298 298 298 298 298 298 298 299 301 302 303 303 304 304 304 305 305 305 305 305 305 305 305 305 305 305 305 305 305 304 304
318 321 322 321 321 322 321 321 323 321 321 323 320 318 318 317 317 318 318 320 319 319 321 322 321 323 325 322 322 323 315 311 311 310 309 308 307 306 305 304 303 302 302 301 300 299 298 298 297 297 297 297 297 297 297 297 297 297 297 297 297 297 298 298 300 301 302 302 303 303 303 303 303 304 304 304 304 304 304 304 303 303 303 303 303 303
317 317 318 320 322 321 319 321 325 324 321 320 318 317 317 318 319 318 318 318 318 319 321 323 322 324 327 324 321 323 316 312 311 310 309 308 306 305 304 304 303 302 302 301 299 298 297 297 297 296 296 296 296 296 296 296 296 296 296 297 297 297 297 297 297 298 298 299 300 300 301 301 301 302 302 303 303 303 303 303 303 303 303 302 302 302
315 311 312 317 319 318 319 319 319 322 320 317 317 318 318 320 320 319 318 317 319 323 323 322 321 322 328 328 320 319 316 312 311 310 308 306 305 304 303 303 302 301 301 300 299 298 297 297 297 296 296 296 295 295 295 295 295 295 295 295 296 296 296 296 296 296 296 296 297 297 298 298 299 300 300 301 301 301 301 302 302 302 302 302 302 301
316 314 314 318 316 314 318 319 316 316 316 315 316 316 318 322 321 318 319 318 321 327 325 323 323 322 327 327 319 316 315 311 311 309 308 306 304 304 303 302 301 301 301 300 300 298 297 297 296 296 296 295 295 295 295 294 294 294 294 294 294 295 295 295 295 295 295 295 295 296 296 296 297 297 298 298 298 299 299 300 300 301 301 301 301 301
321 320 316 317 317 314 317 318 316 316 314 314 315 315 319 325 323 322 324 323 325 326 322 324 326 323 324 323 318 316 313 312 312 309 307 305 303 303 302 301 301 301 300 299 299 299 298 296 296 296 295 295 294 294 294 294 294 294 293 293 293 294 294 294 294 294 294 294 295 295 295 295 295 296 296 296 296 297 297 297 298 299 299 299 300 300
323 323 318 319 318 315 316 317 319 320 316 313 317 320 322 323 321 321 323 324 325 323 319 320 321 322 323 319 316 313 309 309 309 307 306 304 302 302 301 301 301 300 300 299 299 299 297 296 296 295 295 294 294 293 293 293 293 293 293 293 293 293 293 293 293 293 292 292 293 293 294 294 294 294 294 294 294 295 295 296 296 296 297 297 298 298
322 323 321 322 320 316 315 317 320 322 318 314 318 323 324 322 320 319 320 321 323 323 320 319 320 323 322 317 312 309 306 306 305 304 304 303 302 302 301 301 300 299 299 299 298 298 296 295 295 295 295 294 294 293 293 292 292 292 292 292 292 292 292 292 292 292 292 292 291 291 292 292 293 293 293 293 293 294 294 294 295 295 295 295 296 296
320 321 322 321 318 315 316 318 318 320 322 320 319 321 323 323 322 321 322 323 323 324 322 321 323 323 318 313 309 307 306 305 304 303 303 302 302 301 300 300 299 298 298 298 298 297 295 294 294 294 294 294 293 293 292 292 291 291 291 291 291 291 291 291 291 291 291 291 291 290 291 291 291 291 292 292 292 292 292 293 293 293 293 293 294 294
318 320 323 321 317 315 316 319 318 319 323 322 321 323 321 320 320 322 324 322 321 323 321 319 321 319 315 314 309 307 306 305 304 303 302 302 301 300 300 299 298 297 297 296 297 296 294 293 293 293 293 293 292 292 292 291 291 291 291 290 290 290 290 290 290 290 290 290 290 289 289 290 290 290 290 290 290 290 291 291 291 291 292 292 293 293
320 320 322 321 320 317 313 314 316 317 319 320 321 321 318 317 319 320 321 321 321 322 319 317 318 316 316 316 311 308 307 306 304 303 302 301 300 299 299 298 298 297 297 296 296 295 293 293 293 292 292 292 292 291 291 290 290 290 290 290 289 289 289 289 289 289 289 289 289 288 288 288 289 289 289 289 289 289 289 289 289 289 290 291 291 292
320 320 321 321 322 318 311 313 317 317 317 318 317 316 317 320 320 319 320 320 322 321 319 319 319 316 316 316 314 311 308 306 304 303 302 301 300 299 298 298 297 297 296 296 295 294 293 292 292 292 292 292 292 291 291 291 290 289 289 289 289 289 289 289 289 288 288 288 288 288 287 287 287 287 288 288 288 288 288 288 288 288 288 289 289 290
319 320 321 321 321 319 314 316 320 318 316 314 313 314 317 319 319 319 320 321 322 321 320 320 319 318 318 315 314 311 308 306 305 304 303 302 301 300 299 298 298 297 296 295 295 294 293 292 292 292 292 292 292 291 291 291 291 290 289 289 289 289 289 289 289 288 288 288 288 288 287 287 287 286 286 286 286 286 286 286 286 287 287 287 287 288
320 321 320 319 319 320 319 319 320 319 317 316 315 315 316 316 317 318 319 319 320 319 320 320 319 320 317 312 311 310 308 307 306 304 303 302 301 300 299 299 298 297 296 296 295 294 293 292 292 292 292 292 292 292 292 291 291 291 290 290 289 289 289 289 289 288 289 289 288 288 288 288 287 287 286 286 286 286 286 286 285 285 286 286 286 286
320 320 320 320 320 320 320 318 318 318 317 318 319 317 316 317 318 319 318 318 318 318 319 318 318 320 316 311 310 309 308 308 306 304 303 301 301 300 299 298 298 297 296 295 295 294 292 292 292 292 292 292 293 293 293 292 291 291 291 290 289 289 288 288 288 288 288 288 288 288 288 288 288 287 287 286 286 286 286 285 285 285 285 285 285 285
318 319 319 319 319 318 317 316 317 319 317 318 320 318 318 318 318 319 318 317 317 317 318 318 318 318 314 310 309 308 307 306 305 303 302 301 300 299 298 297 297 296 296 295 295 293 292 293 292 292 292 292 293 293 293 292 291 291 290 290 289 288 288 288 288 287 287 288 288 288 288 288 288 287 287 287 286 286 286 286 286 285 285 285 285 284
316 316 317 317 317 316 316 316 317 319 317 317 318 317 317 317 316 316 314 314 315 315 316 316 316 317 315 310 308 307 306 306 304 303 302 301 300 299 297 297 296 296 296 296 294 293 292 292 292 292 292 292 292 292 292 292 291 291 290 289 289 288 288 287 287 286 286 287 287 287 287 287 287 287 287 287 287 286 286 286 286 286 285 285 284 284
315 315 316 316 316 316 315 315 316 318 317 317 316 315 315 315 314 314 312 313 314 314 314 315 315 316 316 312 308 307 306 306 305 303 303 302 300 299 298 297 297 296 294 294 294 292 291 291 291 291 291 291 290 290 290 290 290 290 290 289 289 288 288 287 287 286 286 286 286 286 286 286 286 286 286 286 286 286 286 285 285 286 285 285 285 284
313 314 315 315 315 314 313 313 314 315 315 315 314 314 315 315 314 314 314 314 314 314 313 314 313 314 315 314 311 308 307 306 305 303 303 303 300 298 298 298 296 295 293 293 293 293 292 291 291 291 291 290 290 290 290 289 290 289 289 289 288 288 288 287 287 286 285 285 285 285 285 285 285 285 285 285 285 285 285 284 284 284 284 285 285 285
312 313 314 314 314 313 312 312 312 311 311 312 313 313 313 313 313 314 314 313 312 312 311 311 311 311 311 311 309 309 309 307 306 304 303 302 301 299 298 297 295 294 293 292 293 293 293 292 291 291 291 290 290 290 289 289 289 289 289 289 288 288 287 287 287 286 286 285 285 285 285 285 285 285 284 284 284 284 284 284 284 283 283 284 284 284
311 312 312 312 312 312 311 311 310 310 310 309 310 310 310 310 311 311 311 311 311 311 310 309 308 308 307 307 306 306 307 306 306 306 304 301 300 299 298 296 295 294 293 293 293 293 293 293 291 290 291 290 290 290 289 289 289 289 289 289 288 288 287 287 287 286 286 286 285 285 285 285 285 284 284 284 284 284 284 284 284 283 283 283 283 283
311 310 309 308 309 309 308 308 308 308 307 307 307 307 307 307 308 308 308 308 309 309 308 306 306 306 305 304 304 304 304 303 304 304 302 300 299 298 296 295 295 295 294 294 294 293 294 293 291 290 290 290 290 290 290 289 289 289 289 289 288 288 288 287 287 286 286 285 285 285 285 285 285 285 285 284 284 284 284 284 284 283 283 283 283 283
309 308 307 307 306 307 306 306 306 306 306 305 305 306 305 305 306 305 305 306 306 306 305 305 305 304 303 303 303 303 303 302 301 300 298 298 297 297 296 295 296 296 295 295 294 294 293 292 290 290 290 290 290 290 290 290 289 289 289 289 289 288 288 288 287 287 286 285 285 285 284 284 284 284 284 284 284 284 284 284 284 283 283 283 282 282
308 307 307 307 306 305 305 305 305 306 306 305 305 305 305 305 305 305 304 304 304 304 304 304 304 303 303 303 301 300 300 299 298 297 297 296 296 295 294 294 295 295 295 296 296 294 293 291 289 290 290 290 290 290 290 289 289 289 289 289 288 288 288 288 287 286 286 285 285 284 284 284 284 283 283 283 283 283 283 283 283 283 283 283 282 282
307 306 306 306 304 303 302 303 304 304 304 304 303 303 303 303 303 303 303 303 303 303 303 303 303 303 302 302 300 298 297 296 295 295 295 294 294 293 292 293 293 293 293 294 295 294 294 291 289 289 290 290 290 290 289 289 289 289 289 288 288 288 288 287 286 285 285 285 284 284 284 283 283 283 283 283 283 283 282 282 282 282 282 282 282 281
306 305 305 305 303 302 302 302 302 302 303 303 302 302 302 302 302 302 302 302 302 302 302 302 302 302 302 301 300 297 295 294 293 293 292 292 292 292 292 292 292 293 293 293 294 294 294 291 289 289 290 290 290 289 289 289 289 288 288 288 287 287 286 285 285 284 284 283 283 283 283 283 283 283 282 282 282 282 282 282 282 282 281 281 281 280
305 305 304 304 303 302 302 302 301 301 302 302 301 301 301 301 301 301 301 301 301 301 301 301 302 303 302 299 298 295 292 291 291 291 291 292 292 292 293 293 292 292 292 292 293 292 290 290 290 289 289 289 288 288 288 287 287 287 286 286 286 285 285 284 283 283 282 282 282 282 282 282 282 282 282 282 281 281 281 281 281 281 281 281 280 279
303 303 303 303 303 302 302 302 301 301 301 301 301 301 300 299 299 300 300 299 299 299 299 298 300 300 298 295 293 292 291 291 291 291 291 292 292 293 294 293 292 291 291 291 292 290 289 289 289 288 287 287 286 286 286 286 285 285 285 284 284 284 283 282 282 281 281 281 281 281 281 281 281 281 281 280 280 280 280 280 280 280 280 280 279 279
302 301 301 301 301 301 301 301 301 300 298 299 300 299 298 298 298 298 298 298 297 297 297 297 298 297 294 292 292 291 291 291 291 292 292 292 293 293 293 292 291 291 290 290 290 289 288 288 287 286 286 285 285 285 284 284 283 283 282 282 282 282 281 280 280 280 280 280 280 280 280 280 279 279 279 279 279 279 279 279 279 279 279 278 278 278
300 300 300 300 299 299 299 298 299 298 297 297 298 297 297 298 297 297 298 299 298 297 297 298 298 295 292 291 291 291 291 291 292 293 293 292 293 294 292 291 290 290 289 289 289 288 287 286 286 285 285 284 284 283 283 282 281 281 280 280 280 280 279 278 278 278 278 278 278 278 277 277 277 277 277 277 277 277 277 277 277 277 277 277 276 276
299 299 299 299 299 299 298 297 297 297 297 297 297 296 296 296 296 297 298 299 299 298 298 299 296 292 290 290 290 290 292 292 293 294 292 292 293 293 291 289 289 289 289 288 288 287 286 286 285 284 284 283 282 281 281 280 279 278 278 278 278 277 276 276 276 276 276 276 276 275 275 275 275 275 275 275 275 275 275 274 274 274 274 274 274 274
297 297 298 298 298 298 298 297 297 296 297 297 296 295 295 295 296 296 296 295 296 296 296 295 293 290 290 290 290 290 291 292 293 294 292 290 291 291 290 289 289 289 288 287 287 286 285 284 284 283 282 281 280 279 278 277 276 276 275 275 275 275 274 274 274 274 274 273 273 273 273 272 272 273 273 273 272 272 271 271 271 271 271 272 272 272
295 296 297 298 298 298 297 297 296 295 295 296 295 294 294 295 295 295 293 293 295 295 293 293 292 291 290 291 291 291 292 292 293 293 291 290 289 289 289 289 288 288 287 286 286 285 284 283 283 282 281 280 278 277 276 275 274 274 273 273 273 273 273 272 272 272 271 271 271 270 270 269 270 270 270 269 269 268 268 268 268 268 269 269 269 270
294 294 296 296 296 297 297 296 296 295 295 296 295 295 296 295 295 294 293 294 296 295 293 292 292 291 291 291 291 291 292 292 292 291 291 290 289 289 289 288 288 287 286 285 284 284 283 282 281 280 279 278 276 275 274 273 272 272 272 271 271 271 271 271 270 269 269 268 268 267 267 267 267 267 266 266 266 265 265 266 266 266 266 267 267 268
294 294 296 295 295 295 295 295 295 294 295 295 295 294 295 295 295 295 294 295 297 296 294 293 292 291 291 291 290 291 291 291 291 291 290 290 290 290 288 287 287 286 285 284 283 282 281 280 279 278 277 275 274 273 272 271 271 270 270 270 270 270 269 268 268 267 267 266 266 265 265 265 264 264 264 264 264 264 264 264 264 264 264 265 265 265
295 295 295 295 294 294 294 294 294 294 294 295 295 294 295 295 295 295 294 294 295 295 294 292 292 292 291 291 290 291 291 291 290 290 290 290 290 289 287 286 285 284 283 283 282 280 279 278 276 275 274 273 272 271 271 270 269 269 269 269 269 268 267 266 266 265 265 264 264 264 264 263 263 263 263 263 263 263 263 263 263 263 263 264 264 264
295 294 294 294 294 295 294 294 295 295 295 295 295 294 295 296 295 295 295 294 294 294 293 292 292 292 291 291 291 291 290 290 290 290 289 290 289 288 286 285 284 283 282 281 280 278 277 276 274 273 272 272 271 270 269 268 268 267 267 267 267 266 265 265 265 264 264 263 263 263 263 263 263 262 262 262 262 262 262 262 263 263 263 263 264 264
294 294 294 293 293 294 294 294 295 295 294 295 295 294 295 295 295 294 295 295 294 294 293 292 292 292 291 291 290 290 290 290 289 289 289 289 289 287 285 284 283 282 280 279 278 276 275 274 272 272 271 270 269 268 268 267 267 266 266 266 266 265 264 264 264 263 263 263 263 262 262 262 262 262 262 262 262 262 262 262 263 263 263 263 263 264
293 293 293 292 292 292 293 293 293 293 293 293 294 294 295 294 294 293 293 294 294 293 293 292 292 292 291 291 290 290 290 289 289 289 289 288 287 285 283 282 281 280 278 277 276 275 274 272 271 270 269 269 268 267 266 266 266 265 265 265 265 264 264 263 263 263 262 262 262 262 262 262 262 262 262 262 262 262 262 262 262 263 263 263 263 263
292 292 292 291 292 291 291 292 292 293 293 292 292 293 294 294 293 292 292 292 292 292 292 292 292 291 291 290 290 290 289 289 289 288 288 287 285 283 281 280 279 278 276 275 274 273 272 271 270 269 268 267 267 266 266 265 265 265 265 264 264 264 263 263 263 262 262 262 262 262 262 262 262 262 262 262 262 262 262 262 262 262 263 263 263 263
292 292 291 291 291 291 291 291 292 292 292 292 292 292 292 292 292 292 293 292 292 292 292 291 291 291 291 290 289 289 289 288 288 287 286 284 283 281 279 278 277 276 274 273 272 271 270 269 268 267 266 266 265 265 265 265 265 264 264 264 264 263 263 262 262 262 262 262 262 262 261 261 261 261 261 261 261 262 262 262 262 262 262 262 263 263
292 292 292 291 291 291 291 291 292 292 291 291 291 291 291 291 292 292 292 292 292 292 292 290 288 289 289 289 288 288 288 287 286 285 284 282 281 279 277 276 275 274 273 272 271 270 269 268 267 266 265 265 264 264 264 264 264 264 264 263 263 263 262 262 262 262 262 262 262 261 261 261 261 261 261 261 261 261 261 261 262 262 263 263 263 264
292 292 292 292 292 292 291 291 292 291 291 291 291 291 291 291 291 291 291 291 291 291 291 290 288 286 286 285 285 286 286 285 283 282 281 280 278 277 275 274 273 272 271 270 269 268 267 267 266 265 264 264 264 264 264 264 264 264 264 263 263 263 262 262 262 262 262 262 261 261 261 261 261 261 261 261 261 261 261 261 262 263 263 264 264 265
292 292 292 292 292 292 292 292 292 292 291 291 292 292 292 292 292 292 291 291 291 291 291 291 289 286 285 283 281 282 284 282 280 279 279 277 276 274 273 272 271 270 269 268 267 267 266 266 265 264 263 263 263 263 263 263 263 264 264 263 263 263 262 262 262 262 261 261 261 261 261 261 260 260 260 260 261 261 261 261 261 262 263 264 264 265
Wind_Speed
3 3 3 4 6 9 9 10 11 10 10 10 9 7 7 7 6 7 9 9 5 4 4 5 6 7 8 9 12 14 12 11 13 12 10 4 4 7 11 11 12 12 10 14 20 24 24 26 26 26 27 28 29 30 30 29 27 25 22 17 13 8 4 3 3 4 5 6 6 6 7 8 8 10 11 11 13 13 13 13 14 15 16 18 22 26
2 3 5 7 11 13 11 10 10 9 8 9 7 6 6 5 7 8 10 10 3 1 3 5 6 7 9 13 15 12 10 11 9 5 5 8 10 9 11 12 11 10 9 13 17 20 24 25 26 27 28 30 30 30 30 29 28 26 24 23 19 13 10 7 5 5 4 3 3 2 3 4 5 6 8 10 11 13 14 14 14 15 16 17 19 23
2 5 9 12 12 11 11 10 10 9 7 7 6 5 5 5 7 8 8 6 1 2 3 5 6 6 10 16 16 11 8 5 4 9 9 10 11 10 10 10 10 10 9 11 12 15 21 23 26 28 28 29 29 29 30 29 28 27 26 25 21 18 16 12 8 8 7 5 4 3 3 3 2 2 3 6 6 9 12 13 14 14 16 16 17 20
4 5 10 12 11 10 10 9 8 8 5 4 4 4 5 5 5 5 3 2 3 3 6 7 6 5 10 14 13 11 6 5 11 13 11 10 11 11 10 10 10 10 9 9 10 11 16 21 25 27 27 28 29 30 31 31 28 27 26 25 22 19 19 16 11 10 9 7 5 4 4 4 2 2 1 2 3 5 8 10 12 13 14 14 16 18
7 7 6 7 8 8 7 7 7 5 4 4 5 5 7 7 6 5 4 5 6 6 5 5 5 4 7 8 8 7 2 10 10 12 12 10 10 10 10 11 10 9 8 9 9 9 12 17 22 25 26 27 29 30 30 30 28 26 26 24 23 21 20 19 14 12 11 9 8 7 7 7 5 3 3 4 4 4 6 7 9 11 12 13 15 16
8 6 3 4 6 4 4 6 6 4 3 5 5 5 6 5 4 4 6 5 4 5 2 2 2 3 4 5 8 8 3 9 8 10 10 8 10 9 9 9 8 8 8 8 9 9 11 15 20 24 27 28 29 29 28 28 28 27 25 24 24 23 21 20 17 14 14 13 12 12 12 11 9 8 7 6 4 2 3 4 6 8 9 10 12 15
3 1 3 1 4 3 3 6 7 4 3 4 3 2 3 2 3 3 4 2 1 3 3 1 1 4 4 5 11 8 7 10 8 9 8 8 8 8 8 7 6 7 7 7 9 10 12 16 19 23 26 27 27 27 27 29 30 29 27 25 24 23 22 21 19 16 16 17 16 14 13 12 12 12 11 10 8 4 3 3 3 5 8 8 9 11
3 3 4 2 3 3 4 5 5 5 4 3 1 3 4 3 2 2 1 2 3 4 5 5 4 5 4 6 11 6 10 10 7 8 7 7 8 8 9 8 7 7 7 7 9 10 12 16 19 21 24 26 26 27 28 29 29 29 27 24 23 23 23 21 19 18 19 19 17 16 14 13 13 13 11 10 9 7 5 4 5 6 7 8 9 9
1 3 2 3 4 3 4 2 2 4 4 2 1 2 3 2 1 2 3 4 4 3 4 5 5 3 4 5 8 6 10 8 7 8 7 8 8 8 9 8 7 7 7 7 8 9 12 16 20 21 22 25 26 27 27 27 27 26 25 24 24 26 25 22 20 19 19 18 17 16 15 14 13 12 11 10 9 9 8 7 6 6 7 8 9 9
1 1 1 3 4 3 2 1 4 1 2 2 1 1 1 2 4 4 4 3 2 3 4 5 6 3 4 6 5 4 7 6 7 7 7 8 8 8 8 8 7 6 6 7 7 9 13 17 19 20 22 25 26 26 26 25 25 24 24 25 28 29 27 25 23 23 22 20 19 17 16 15 13 12 11 10 10 11 11 10 9 8 7 7 9 9
0 2 1 2 3 2 3 2 3 3 1 0 1 2 3 5 4 3 3 1 1 3 6 8 10 7 3 5 2 2 5 9 9 7 7 8 8 8 8 7 7 5 5 6 6 9 15 18 19 20 22 24 25 25 25 25 24 25 26 28 30 28 26 26 26 28 28 26 23 20 17 16 15 13 12 12 13 13 12 12 12 10 9 8 8 9
2 1 1 1 2 2 4 2 3 3 2 2 2 2 4 4 1 1 0 2 1 4 5 5 7 11 4 4 2 5 5 10 10 9 10 9 8 8 7 7 6 6 6 6 5 7 12 15 17 19 21 22 24 25 25 25 25 26 27 27 28 26 25 24 26 29 31 30 28 25 21 19 16 15 15 15 14 14 13 13 13 12 11 11 10 9
2 4 4 1 2 1 3 1 2 3 3 3 1 1 2 3 1 0 0 2 3 4 3 5 3 4 5 5 4 5 7 5 7 9 11 11 10 8 7 6 6 6 5 4 4 6 7 9 12 15 17 20 22 23 23 23 23 24 25 24 24 23 23 23 25 29 31 31 30 28 26 23 20 18 17 16 15 14 14 14 14 13 13 13 12 12
2 1 4 3 2 2 5 3 1 2 1 4 3 3 3 1 2 3 2 2 3 3 2 4 6 1 3 4 3 6 8 7 10 11 10 10 10 9 7 6 7 6 4 3 5 6 6 8 11 13 16 18 20 20 21 21 21 21 21 21 21 21 22 24 25 28 30 30 29 27 27 25 24 22 21 20 19 17 16 15 15 15 15 14 14 14
1 3 3 4 1 4 7 4 1 1 3 6 4 4 4 3 3 4 3 3 4 3 3 2 2 1 2 1 3 8 8 9 11 10 10 10 8 8 7 7 6 5 4 4 5 6 7 10 12 13 15 16 17 18 19 19 19 19 18 19 20 21 22 24 25 26 27 27 27 26 25 24 23 23 23 22 22 21 19 17 16 16 15 15 15 16
1 3 2 2 1 5 5 3 2 3 1 3 1 2 2 3 3 3 3 4 3 4 4 2 2 3 0 4 6 8 9 10 10 9 9 9 8 7 7 6 5 4 3 4 5 5 7 10 12 13 14 14 14 15 16 16 16 16 16 17 19 20 21 23 24 24 25 25 25 25 24 23 23 22 23 23 22 22 20 19 19 18 17 16 15 15
2 3 2 2 1 3 2 2 2 2 0 1 2 1 3 2 2 2 4 4 3 4 6 4 4 4 1 3 6 8 9 9 8 8 9 7 7 7 6 5 3 3 3 4 5 5 6 10 12 12 13 13 13 13 13 13 13 13 14 16 18 21 22 23 23 24 24 25 25 25 24 24 23 22 22 22 21 21 21 20 21 20 19 17 17 17
2 3 3 3 2 2 1 2 2 0 2 2 1 2 2 1 2 1 3 3 4 6 5 5 7 6 4 2 3 7 8 8 7 8 8 7 7 6 4 4 3 4 4 4 5 5 6 9 10 10 10 10 11 11 11 12 13 13 14 16 18 20 20 21 22 23 24 24 24 24 24 23 23 22 21 21 22 21 21 21 22 22 21 19 18 18
0 2 4 1 1 2 1 1 1 2 2 3 3 1 1 0 1 2 2 2 5 6 4 5 8 7 5 3 2 6 7 8 8 7 7 7 6 5 5 5 4 4 4 3 3 3 4 5 6 7 7 7 8 9 10 10 12 13 14 15 16 17 18 19 20 22 22 22 21 21 21 22 23 22 22 22 23 23 23 23 23 23 23 21 20 19
2 1 2 2 2 2 2 1 1 2 2 2 1 2 1 2 2 2 2 2 4 6 5 5 6 5 3 2 2 5 8 9 8 7 6 6 6 5 4 4 4 4 2 1 1 1 2 3 5 5 6 6 6 8 9 9 9 10 12 13 15 17 19 20 20 20 19 19 18 18 19 20 21 22 22 22 23 23 24 24 24 24 24 24 23 23
1 2 2 1 1 1 1 2 3 1 2 2 1 2 1 1 1 2 2 2 3 5 5 5 6 4 1 3 4 6 7 7 7 7 6 5 5 5 4 4 3 3 3 3 2 2 1 2 4 4 4 3 3 4 6 6 6 7 9 12 14 16 18 18 18 18 16 16 16 15 15 17 18 19 20 20 21 22 22 23 23 24 25 25 25 25
0 2 1 1 2 1 3 3 1 2 4 1 3 2 3 2 1 2 4 4 3 3 4 5 7 4 1 3 3 6 5 6 7 7 6 5 5 5 4 4 4 4 3 3 3 3 4 5 6 6 5 4 3 3 4 4 5 7 8 10 12 14 15 15 15 15 15 14 14 13 12 13 15 16 18 18 19 20 21 21 21 21 23 23 23 23
2 2 1 2 4 6 9 8 5 5 5 4 4 3 3 3 3 3 5 4 2 4 4 5 6 3 1 2 3 6 5 6 7 7 6 5 5 6 5 5 5 5 5 5 5 5 7 7 5 5 4 2 1 2 3 4 5 7 8 9 10 12 14 14 14 15 14 13 13 13 12 13 14 14 16 16 17 18 19 20 20 21 21 22 22 22
3 2 1 3 4 6 9 7 3 5 3 2 2 1 0 2 2 3 3 2 1 3 4 4 6 3 2 2 2 5 5 6 6 6 7 6 5 6 6 6 6 5 5 5 4 3 3 3 2 1 1 3 4 5 6 6 7 8 9 10 11 12 14 15 15 17 17 16 15 15 14 14 15 15 16 16 16 16 18 19 20 20 21 22 23 23
0 1 2 1 3 4 6 5 2 5 4 1 2 2 1 3 3 2 1 1 2 5 6 5 5 2 1 2 1 4 5 5 5 6 6 6 5 5 5 5 5 4 4 3 3 3 2 2 2 3 4 5 6 7 8 9 9 10 10 11 12 12 14 15 16 18 20 19 19 19 18 17 18 19 20 19 19 18 20 21 21 21 23 24 25 25
1 1 2 1 3 5 5 4 1 2 2 1 2 4 3 4 5 4 2 3 4 4 4 4 5 3 2 4 4 4 5 4 4 5 5 5 6 6 5 5 5 5 4 2 3 2 1 1 1 3 4 5 6 8 9 10 11 11 12 12 12 13 14 15 16 18 20 20 20 20 20 21 22 23 24 24 23 22 24 26 25 24 25 26 27 27
0 1 3 4 6 7 7 6 4 3 3 4 6 7 7 7 6 4 3 6 5 3 4 8 9 8 7 9 8 2 4 5 5 5 6 5 5 5 5 4 4 3 2 1 1 1 2 3 4 5 5 6 7 8 10 11 12 13 13 14 15 16 17 17 17 19 21 21 21 22 22 23 25 26 27 27 26 26 28 28 28 28 28 27 27 28
2 2 5 6 7 8 8 9 9 8 6 7 7 9 10 9 7 7 8 7 4 3 7 10 10 10 10 10 10 7 3 5 6 5 5 5 4 5 5 4 3 2 3 3 3 4 5 4 4 5 6 6 7 8 9 9 10 11 12 13 15 16 16 17 18 19 21 22 23 24 24 25 26 28 30 30 30 31 32 31 31 31 31 30 29 30
3 3 5 4 6 8 9 9 9 7 7 7 8 10 11 12 12 12 10 8 5 6 9 10 12 13 11 10 12 11 9 8 5 1 3 5 5 5 5 4 4 5 6 6 6 6 6 6 5 6 7 8 8 9 10 11 11 12 11 12 14 15 15 15 16 18 20 22 23 24 25 26 27 29 30 31 33 34 35 36 36 35 34 33 32 32
2 3 3 2 5 8 8 8 7 6 7 9 11 12 13 15 16 12 11 10 9 10 11 12 14 14 12 12 11 7 4 2 3 4 5 5 5 6 5 5 5 6 6 6 7 6 6 6 7 8 9 10 11 12 13 13 14 13 13 14 15 15 14 14 15 16 18 20 22 24 25 27 28 30 31 32 33 34 35 37 38 38 38 37 35 34
0 1 1 1 3 6 8 7 5 5 8 10 12 13 15 15 14 12 12 11 10 11 13 13 14 14 11 8 4 1 4 4 4 4 4 4 5 4 2 3 4 4 5 5 6 6 5 5 6 8 10 11 12 13 14 14 15 14 14 14 14 14 13 13 14 15 18 20 23 25 26 27 28 30 31 32 32 33 35 36 37 38 39 39 38 37
1 1 1 1 2 7 9 7 6 6 7 9 14 17 17 14 12 11 10 9 10 12 13 12 12 10 5 1 2 3 4 4 3 3 3 2 3 3 1 4 4 3 4 5 5 5 5 6 7 9 11 12 13 14 16 16 16 14 13 13 14 13 12 12 14 17 21 23 25 27 27 28 29 30 31 31 32 33 34 35 35 36 38 38 39 38
2 2 1 1 3 7 9 5 2 1 4 9 12 14 14 13 13 13 11 11 13 12 10 10 8 5 3 3 3 2 2 3 2 2 1 1 1 1 4 5 5 4 4 5 5 6 6 6 8 11 12 14 14 14 13 12 10 10 10 11 11 11 12 15 19 23 26 27 28 29 29 29 30 30 31 31 32 33 33 33 34 35 36 36 36 36
3 4 3 3 2 5 6 1 4 1 7 8 4 5 9 11 12 12 11 11 11 8 7 7 4 3 4 3 3 3 2 0 1 1 3 4 3 4 6 5 4 3 3 4 5 5 7 9 11 10 9 8 8 8 9 10 10 11 12 12 13 15 17 22 25 27 28 29 30 29 30 30 30 31 31 32 32 32 32 32 33 34 34 34 34 34
4 4 3 2 2 2 3 1 2 8 8 4 1 4 6 7 7 9 10 10 9 9 9 9 6 5 6 5 5 5 1 3 3 4 6 5 5 6 6 5 3 0 2 3 4 5 8 11 11 11 11 12 13 14 14 13 13 13 14 15 17 19 21 23 24 26 27 28 29 29 29 29 29 30 32 33 33 33 32 32 32 32 33 32 32 33
5 4 3 3 3 3 2 5 8 8 4 3 4 3 1 1 4 6 7 8 9 9 8 7 5 3 7 6 4 3 2 4 4 5 7 7 8 7 5 4 2 1 1 2 4 5 6 8 10 12 13 13 14 15 14 13 13 15 16 17 18 19 20 21 22 24 25 26 28 29 29 29 30 31 33 34 34 33 32 32 32 33 33 32 33 34
7 5 3 3 4 4 5 7 8 8 8 7 6 3 1 2 3 3 2 5 6 6 4 3 2 4 7 5 2 1 2 2 4 5 6 5 4 4 5 4 3 3 3 4 3 3 7 9 10 11 12 13 14 14 12 12 14 17 18 19 19 19 21 21 22 24 25 26 28 29 29 30 31 33 34 34 33 33 32 33 34 34 34 33 34 36
5 5 5 4 4 4 5 6 6 7 9 6 3 2 1 2 3 3 1 3 4 5 3 4 5 6 6 4 1 2 1 3 3 6 3 2 3 4 3 3 4 3 2 2 3 6 8 9 10 12 13 14 14 12 12 15 18 19 19 19 20 21 23 23 24 25 26 27 28 29 29 30 31 33 34 33 32 32 33 34 35 35 35 35 36 38
0 1 3 4 5 5 5 6 6 6 6 3 3 2 1 1 4 5 3 4 3 4 1 7 8 5 4 3 3 2 2 0 4 6 2 1 1 3 3 3 4 3 3 5 6 7 8 9 10 12 13 13 12 12 16 19 20 20 20 21 22 23 24 25 26 26 27 28 28 29 29 30 31 31 31 32 33 33 35 36 36 36 36 36 36 38
0 0 2 4 6 7 8 6 5 5 4 3 5 4 5 2 5 5 6 6 3 4 4 8 8 5 5 5 5 4 4 4 5 5 3 2 3 2 2 3 2 3 6 6 6 8 9 10 11 12 12 11 12 16 20 21 22 22 23 23 24 23 24 25 26 27 28 29 29 29 30 29 29 30 31 33 35 37 37 37 36 36 37 37 37 38
1 1 3 6 8 9 10 8 6 5 4 5 7 7 6 2 5 0 8 5 4 6 5 6 7 6 5 5 5 4 5 6 5 5 5 4 4 6 5 2 3 6 6 5 7 8 9 9 9 10 10 11 14 19 21 22 24 25 24 23 22 22 24 26 27 28 29 29 30 30 30 29 29 30 33 34 35 36 36 35 34 35 36 36 37 37
3 1 2 5 6 6 7 7 6 5 4 5 4 4 5 4 1 5 6 3 6 8 6 5 6 5 5 6 6 6 6 6 5 6 6 5 6 7 3 3 6 6 5 6 7 8 8 8 9 9 11 13 16 19 21 23 25 24 23 23 23 24 25 26 27 29 30 31 31 31 31 31 31 32 33 33 33 34 36 35 33 34 35 35 35 36
4 3 3 4 5 4 5 6 6 5 3 5 4 1 2 4 4 4 3 3 6 7 6 6 6 6 6 6 6 7 6 6 6 6 6 6 7 4 2 6 6 4 4 5 6 6 7 9 10 11 14 16 18 20 21 22 23 22 22 23 25 25 26 27 28 30 31 32 33 33 33 34 33 33 33 33 33 33 35 35 33 33 33 32 33 34
3 4 3 4 4 4 4 6 5 4 4 6 6 3 5 6 5 5 5 4 6 6 6 6 6 7 8 7 7 7 6 6 6 5 6 6 5 2 6 6 4 4 4 4 3 5 8 10 12 14 17 18 19 21 20 19 20 22 22 24 25 26 28 29 30 31 33 34 34 35 35 35 34 34 34 33 33 33 33 33 33 32 31 30 30 31
5 7 6 6 5 5 5 5 3 2 3 6 7 6 7 7 7 6 6 5 5 6 6 5 6 7 7 7 7 6 5 6 6 6 6 5 2 4 5 4 4 4 4 3 3 6 9 11 14 18 21 21 20 20 19 17 18 22 24 25 26 27 28 30 31 32 33 34 34 35 36 36 35 34 34 33 32 32 32 31 31 30 29 29 30 29
7 6 5 5 5 5 5 6 4 4 5 6 6 7 7 8 8 7 6 6 6 6 6 6 6 6 6 7 6 5 6 6 6 6 5 3 4 4 3 3 3 3 2 2 4 8 11 14 16 19 21 22 21 19 18 17 18 21 25 26 27 28 28 30 31 32 33 34 35 35 35 36 35 34 34 33 32 31 31 31 30 30 29 29 29 29
6 7 7 6 6 7 5 5 5 7 8 7 7 7 8 9 9 7 7 7 7 7 7 7 7 7 7 7 6 6 7 7 6 7 4 4 4 3 3 3 3 2 2 3 6 9 12 15 17 18 19 22 22 20 19 20 20 22 24 27 28 29 29 30 31 32 33 34 34 35 35 35 35 34 33 32 31 30 30 30 30 30 30 29 30 29
5 7 7 7 9 9 7 6 8 9 9 8 7 6 6 8 9 8 8 8 7 7 7 7 7 7 6 6 7 7 7 7 7 6 4 3 3 3 3 3 2 1 2 5 7 10 12 13 15 16 18 20 21 21 21 22 22 23 25 26 28 29 30 31 31 31 33 33 34 35 35 33 33 32 31 31 31 30 31 31 31 31 31 31 32 31
5 6 6 5 6 6 6 7 8 8 9 10 9 9 8 9 9 9 9 8 7 7 7 7 7 7 7 6 7 7 7 7 5 5 4 4 2 2 3 2 0 2 5 7 9 11 13 13 15 16 17 20 21 21 22 23 24 25 25 27 28 29 30 31 31 31 32 33 34 34 33 31 31 31 32 32 32 31 32 32 32 32 33 34 33 33
7 8 8 5 5 6 6 7 7 6 8 9 9 10 11 10 10 10 9 8 8 8 7 7 6 5 6 7 7 7 7 6 5 5 5 4 3 2 1 1 2 4 6 8 11 13 13 13 14 16 18 20 20 21 23 25 26 27 27 27 28 29 29 31 31 31 32 32 32 32 31 30 31 32 32 32 32 32 32 32 31 32 33 35 35 34
8 10 9 7 7 8 8 8 7 7 8 8 8 9 9 8 8 9 8 8 9 8 8 9 8 6 6 6 7 8 7 5 6 6 5 4 3 2 2 2 3 5 8 10 12 13 13 14 15 16 18 19 20 21 24 26 28 28 28 28 28 28 29 29 30 31 32 31 31 31 31 31 31 31 31 31 31 31 31 32 31 31 32 34 35 35
Wind_Direction
158 171 186 199 222 237 237 232 239 242 250 264 270 272 278 285 281 277 281 284 298 300 276 278 285 289 292 284 274 271 274 274 271 276 287 310 46 66 74 76 71 68 58 48 45 40 34 30 30 32 32 34 35 34 33 33 32 34 38 45 49 46 53 92 134 158 171 180 193 207 218 226 228 229 230 228 225 225 227 227 230 233 231 226 222 221
135 197 215 213 225 241 249 259 269 273 282 287 285 285 285 283 278 279 282 286 318 58 274 294 293 292 298 285 275 275 278 275 280 312 5 48 63 67 72 71 67 65 53 44 40 36 33 31 31 33 33 34 33 31 33 34 33 36 39 40 43 46 44 53 79 98 120 141 160 181 203 217 224 228 229 231 231 229 231 233 233 235 234 231 228 226
186 223 230 226 232 246 257 268 275 275 282 290 293 298 289 273 279 284 276 276 71 116 286 306 297 297 290 279 279 279 271 286 36 64 64 67 70 64 64 64 60 57 47 41 35 31 33 33 34 35 34 34 33 31 32 33 34 36 38 37 39 43 43 43 53 65 71 82 96 93 68 87 132 127 174 200 214 222 227 233 236 238 240 239 236 233
196 223 231 227 234 247 257 265 270 270 260 255 264 276 273 268 275 277 276 337 16 309 289 294 290 288 278 275 279 270 253 78 74 77 70 69 73 69 64 61 58 57 49 44 38 30 34 36 37 37 36 35 33 32 30 30 32 33 35 37 38 42 43 40 41 51 56 61 71 71 50 53 74 78 118 214 229 231 229 231 237 241 243 244 244 241
235 254 250 224 227 245 260 271 271 270 268 253 239 241 255 261 262 269 321 350 337 305 289 297 294 260 263 287 297 272 139 84 81 82 72 66 69 67 66 62 57 57 52 50 43 30 34 40 42 41 39 38 36 33 30 30 30 32 35 38 40 44 45 40 40 51 56 54 51 46 42 41 37 24 346 306 287 264 255 248 249 254 252 250 249 248
249 268 276 217 221 241 256 263 256 242 270 270 246 245 257 270 285 305 338 353 340 305 296 42 344 251 257 298 285 266 107 84 78 82 78 71 66 60 59 56 53 54 49 50 48 34 32 38 44 44 41 40 38 34 33 34 34 35 37 38 39 43 45 43 42 52 60 58 51 44 40 36 29 24 18 12 14 324 294 283 265 263 261 258 254 252
234 166 66 148 198 199 220 254 254 221 241 259 242 304 318 357 359 341 349 5 283 272 252 152 281 264 261 265 261 251 113 96 84 82 82 76 73 69 63 49 41 47 42 45 47 39 32 33 38 40 40 40 39 37 38 39 38 38 39 39 38 40 44 46 46 52 59 59 52 46 42 37 31 26 21 19 22 15 351 334 299 279 273 271 265 257
194 142 66 67 178 190 209 249 247 190 194 244 241 352 5 37 15 346 338 244 237 271 266 228 226 264 267 251 250 216 116 105 100 93 88 81 75 75 74 58 39 42 40 41 44 41 35 33 36 38 40 42 42 41 41 42 41 42 43 43 42 43 46 48 50 55 59 58 52 46 44 39 33 27 20 16 15 11 358 331 309 300 286 281 283 273
93 146 154 165 173 204 210 259 293 172 179 220 228 359 29 61 296 261 240 250 265 307 284 215 180 238 269 258 245 181 121 116 125 115 105 96 84 77 76 67 47 36 37 44 46 45 39 36 38 40 42 43 43 43 42 43 43 45 47 47 48 47 48 50 53 58 62 63 58 51 45 38 33 28 22 19 15 11 4 347 326 313 296 287 289 287
23 144 212 172 174 212 196 350 350 38 175 206 249 314 322 233 240 238 233 253 300 290 259 214 176 191 276 266 239 163 132 138 140 126 115 106 98 88 79 73 59 33 28 40 46 49 47 42 38 41 44 43 42 43 43 44 44 44 46 47 48 47 46 48 53 58 60 61 60 54 45 39 36 32 27 24 19 11 4 358 348 336 318 299 290 289
224 72 343 223 209 189 122 80 9 38 104 233 314 333 301 259 225 215 219 172 340 266 247 230 198 185 277 283 230 117 148 153 142 138 131 114 102 95 85 74 65 46 26 28 37 44 46 44 39 39 42 40 39 41 42 41 40 40 42 44 46 45 43 45 50 56 58 58 58 53 45 37 33 33 32 28 22 14 8 3 357 350 341 328 311 297
214 171 225 236 246 149 116 79 10 31 44 33 23 4 328 300 182 127 79 118 178 253 269 276 199 183 216 283 330 38 101 146 149 149 141 121 104 92 83 78 70 55 34 18 28 41 41 40 34 33 37 37 36 36 35 35 35 37 39 42 44 42 40 41 45 52 55 55 55 52 47 40 33 33 33 27 20 14 10 5 359 356 351 345 337 324
221 208 191 157 313 167 125 70 2 0 35 84 92 25 325 319 331 264 244 166 217 239 269 357 43 181 219 276 308 33 60 90 118 126 126 119 109 96 88 85 74 59 39 12 27 43 41 37 32 32 36 36 36 34 33 34 34 34 35 38 41 40 39 40 43 49 51 51 50 49 47 43 38 37 35 28 21 13 8 2 357 354 350 345 342 337
289 255 162 146 330 191 164 161 208 303 146 158 173 161 176 273 299 269 260 245 249 252 270 14 28 336 239 280 328 76 70 57 77 92 99 104 104 100 96 85 75 67 46 24 38 42 38 34 32 35 38 37 36 35 34 35 36 35 33 33 37 38 38 39 42 47 49 48 47 47 46 43 41 39 37 34 28 21 14 7 360 355 349 343 338 333
278 314 180 171 225 173 183 200 204 146 170 194 198 162 175 208 232 249 265 261 262 283 297 350 30 252 216 225 78 91 86 71 75 82 85 89 90 91 87 75 71 66 44 37 44 45 40 34 33 37 38 37 36 34 34 35 36 37 34 33 35 37 37 38 40 43 45 45 43 44 44 42 40 38 38 38 34 29 23 16 7 360 353 345 337 331
207 258 193 167 210 172 190 255 354 51 172 232 220 110 204 214 210 254 271 260 274 298 287 252 228 260 259 100 99 94 88 82 81 85 88 87 87 84 77 73 71 60 46 42 43 42 36 34 35 37 35 35 34 32 33 34 34 35 33 33 36 38 40 40 40 41 42 42 41 39 39 39 38 37 37 36 34 31 28 24 17 8 2 354 344 335
214 236 146 126 239 181 184 309 20 54 276 352 53 161 235 212 140 267 276 271 270 268 262 251 259 281 330 103 112 101 94 95 94 91 92 91 88 85 83 93 102 88 67 51 47 41 30 29 32 33 33 32 31 32 34 35 34 33 31 33 37 40 42 42 41 42 42 42 39 36 35 35 34 34 34 33 31 30 30 28 24 18 14 9 360 350
230 260 209 184 226 234 244 328 355 51 114 116 206 240 267 358 62 228 257 266 256 255 248 244 263 277 277 252 137 121 111 107 109 104 103 102 97 99 115 124 114 92 76 60 55 47 37 32 27 27 29 31 33 34 36 38 38 40 40 39 40 41 41 41 42 43 42 41 39 35 33 32 31 31 31 31 29 28 28 26 23 20 19 18 12 4
333 274 258 243 225 217 242 9 354 342 62 141 208 262 80 200 278 244 225 227 241 259 257 230 248 258 250 255 149 142 136 123 123 124 122 124 126 130 132 126 108 91 82 70 65 50 42 32 17 17 18 21 29 29 30 34 35 39 41 41 42 41 39 40 41 41 40 39 37 34 32 31 29 28 28 28 26 24 24 22 18 16 15 15 14 10
46 238 267 8 73 109 44 39 199 290 358 80 33 344 119 168 212 225 246 257 239 258 268 243 245 251 256 318 49 123 135 136 140 136 129 129 132 135 133 130 125 123 127 117 104 86 47 10 352 358 360 5 16 16 17 20 20 26 30 32 34 32 33 34 35 35 34 32 29 27 26 25 24 25 25 26 24 22 21 18 15 13 10 9 9 7
66 245 248 321 8 61 60 196 168 197 323 45 45 294 250 171 228 275 276 246 233 257 269 262 256 253 314 358 57 99 114 130 133 127 123 123 121 125 134 140 149 160 172 185 181 171 195 254 278 292 304 318 330 339 352 359 0 7 15 22 26 25 26 27 27 27 26 24 20 18 17 14 13 15 17 19 20 19 18 15 13 11 7 5 4 2
153 232 223 296 301 266 246 255 36 319 280 223 154 205 260 247 210 283 269 230 216 238 239 254 262 251 281 344 64 91 93 106 120 126 131 140 142 143 148 150 160 176 182 184 182 189 211 226 242 255 263 269 274 295 320 339 354 3 11 17 21 23 23 22 21 20 18 16 13 11 8 5 5 5 6 8 10 9 9 8 6 5 3 1 1 359
65 101 148 267 259 254 265 279 309 311 281 238 199 211 255 243 178 211 258 253 247 262 250 248 255 238 238 327 71 101 109 112 126 139 141 155 163 159 166 171 175 189 196 199 202 206 212 223 242 249 254 267 302 349 357 12 14 15 19 18 18 20 19 18 18 15 14 11 7 6 2 358 358 356 355 356 357 358 358 356 354 354 353 352 352 352
56 94 199 253 257 266 271 273 337 15 2 249 259 308 233 251 199 189 232 231 215 275 276 263 256 246 264 308 56 102 112 118 135 148 152 168 175 168 175 179 180 184 185 190 198 200 203 220 266 279 5 31 36 25 20 23 20 18 19 14 12 12 9 10 10 8 10 9 4 3 1 357 355 352 349 347 345 347 348 347 344 342 341 342 343 345
296 196 149 247 280 288 283 276 346 20 31 38 307 334 347 298 300 307 268 212 205 225 233 249 260 240 219 272 206 135 129 135 153 166 166 170 176 179 178 169 163 155 147 150 129 92 70 53 47 40 30 25 24 20 16 15 12 11 11 8 7 4 360 2 2 1 4 3 359 357 356 352 350 347 346 344 339 337 338 339 339 336 333 334 335 336
229 191 133 182 244 254 264 264 254 51 56 63 273 279 281 269 269 288 309 264 251 234 227 254 265 263 285 270 236 182 157 165 182 192 188 178 175 175 165 156 154 146 138 135 113 97 36 339 18 16 10 5 6 6 3 0 359 357 355 355 357 356 353 354 355 356 358 358 354 351 349 345 343 341 341 340 336 332 330 332 333 332 330 330 329 328
126 231 202 210 230 243 256 269 288 308 292 272 277 279 276 266 253 252 255 255 273 308 277 261 265 277 287 281 279 274 153 177 210 213 201 188 172 156 141 140 144 143 151 144 75 339 303 305 316 325 332 338 344 345 345 344 341 340 339 339 342 344 344 343 344 346 349 350 348 345 343 340 338 336 336 336 333 327 325 326 326 326 326 326 324 322
121 240 231 220 235 247 257 270 284 291 280 271 278 277 276 275 261 243 246 257 293 312 267 264 276 282 281 282 295 310 283 255 265 241 199 177 158 137 127 138 156 209 229 217 224 245 252 260 278 290 299 310 314 314 316 315 313 316 316 317 322 327 330 331 331 334 338 340 339 338 336 333 331 330 330 330 328 325 323 323 321 321 322 322 320 318
125 243 251 244 254 259 265 270 274 281 283 281 277 275 277 275 264 256 257 256 252 255 261 273 280 278 279 285 290 296 297 296 300 267 131 121 127 132 141 170 199 222 229 221 223 231 229 228 239 252 263 273 277 281 285 283 285 289 289 292 300 307 313 316 316 321 327 330 330 329 327 325 323 323 322 322 321 320 320 319 318 317 316 315 315 314
140 238 255 263 271 269 265 267 274 279 278 274 269 267 266 264 264 267 271 265 255 258 267 275 277 276 280 284 286 299 327 9 69 84 94 109 132 148 163 195 219 231 228 220 223 229 227 227 235 244 253 259 260 262 266 266 269 273 274 279 288 294 299 301 302 308 315 318 318 317 317 316 316 316 315 314 314 314 314 313 313 312 311 310 310 310
204 209 141 66 292 278 270 271 275 262 262 267 267 263 258 261 268 270 269 271 270 269 270 271 273 274 274 283 295 64 89 85 88 97 111 131 139 139 164 230 244 253 254 247 242 236 228 234 247 254 256 257 259 261 263 265 268 270 272 278 285 290 295 296 297 303 306 307 307 308 307 308 308 309 307 307 307 306 306 307 307 306 305 306 306 307
287 259 357 57 264 271 276 280 273 259 266 270 263 258 256 257 263 261 260 262 262 267 272 271 270 269 264 99 100 123 103 83 83 91 85 82 105 116 209 265 272 284 290 291 282 262 244 239 243 251 258 262 264 266 267 269 271 273 277 286 295 299 301 303 306 309 308 306 304 303 303 302 302 302 301 300 300 300 300 300 299 298 298 299 301 303
184 174 213 211 237 268 272 281 319 299 270 263 254 252 253 253 256 257 257 254 251 256 265 264 259 252 218 140 136 145 91 75 57 62 70 341 321 205 233 251 260 268 273 282 292 289 276 264 254 251 256 262 268 274 281 286 291 298 306 314 316 315 315 316 316 314 309 306 304 302 301 301 299 298 297 297 296 296 296 295 293 293 293 293 295 298
179 163 188 216 232 260 258 282 70 203 247 256 237 223 242 249 251 254 256 253 248 247 253 256 237 177 172 165 138 117 96 56 304 273 241 230 223 233 243 244 244 264 302 321 329 329 323 315 306 294 287 297 319 342 351 353 349 341 334 330 323 316 314 314 313 310 307 305 303 303 302 301 299 298 298 298 297 296 294 292 291 290 290 290 291 293
192 185 201 217 222 247 242 203 237 240 243 257 186 207 240 247 236 246 261 261 257 259 262 266 257 193 153 136 129 121 132 262 263 269 261 238 216 226 235 229 214 130 6 341 332 320 321 333 350 9 16 14 13 10 2 355 346 335 327 321 314 308 308 309 308 306 305 304 304 304 305 304 302 301 301 301 300 298 295 293 292 292 291 290 289 290
200 204 212 215 226 252 246 230 243 256 268 272 250 228 189 190 211 237 267 262 249 251 255 264 266 181 131 124 130 142 216 260 270 268 256 244 237 226 203 188 161 106 215 281 295 309 343 16 36 36 26 13 4 358 352 345 338 330 325 321 315 309 308 310 308 306 305 305 305 306 307 307 306 305 305 303 302 299 297 296 296 295 294 292 289 288
198 203 213 229 234 235 236 238 255 284 288 266 259 260 136 153 190 199 245 252 238 237 234 221 175 121 120 121 125 225 271 334 333 294 271 253 230 188 162 167 176 196 233 275 307 7 39 41 33 20 7 360 358 357 350 342 336 332 327 322 319 315 314 313 310 308 308 306 306 307 308 309 309 308 306 304 302 300 299 299 298 297 297 295 292 289
196 198 196 221 241 231 242 254 258 274 272 249 237 310 18 101 120 127 184 263 265 272 246 175 145 124 116 119 178 268 344 28 328 284 291 63 124 140 150 203 213 232 283 340 41 51 40 20 10 6 357 353 358 358 348 340 337 334 329 324 322 319 317 315 312 311 311 309 309 309 309 309 309 307 305 304 303 303 302 302 300 299 298 296 293 290
122 188 171 210 246 234 240 253 243 254 267 218 183 287 296 129 81 47 342 291 277 281 182 132 132 133 136 181 222 189 130 85 273 262 255 75 148 165 177 238 270 326 33 69 63 38 20 8 3 359 354 358 3 353 341 337 336 334 329 325 323 320 317 315 314 314 313 311 310 309 308 309 308 306 305 305 305 305 304 302 301 299 297 295 292 290
113 122 162 208 236 232 233 246 244 251 259 205 195 222 233 205 73 43 306 280 222 220 184 137 144 165 167 195 210 173 172 212 238 245 253 308 312 262 234 269 308 51 75 67 30 7 4 4 0 358 2 4 353 340 337 337 335 333 328 324 322 319 316 315 314 313 311 310 310 309 309 310 309 306 305 304 304 303 302 301 300 299 297 295 293 291
160 188 203 213 226 229 231 241 252 252 233 204 195 190 182 94 62 164 261 257 184 219 226 157 162 182 174 190 207 201 215 221 220 248 276 303 298 280 275 283 100 95 79 41 10 1 1 2 359 359 358 349 338 336 336 335 332 328 325 322 319 316 315 315 313 312 312 311 311 311 311 310 308 305 304 304 303 301 300 299 299 298 297 296 295 293
145 151 233 221 221 227 229 236 256 267 229 183 182 178 150 100 69 223 230 190 173 209 226 187 184 198 194 205 216 217 232 239 242 266 280 276 268 270 274 101 99 84 43 14 4 358 356 357 353 345 339 336 334 335 334 332 328 325 322 319 316 315 316 316 315 315 314 313 313 312 311 309 307 306 305 303 302 300 298 299 299 298 297 296 295 293
168 166 227 220 203 207 227 231 240 263 234 146 118 93 170 179 212 211 195 189 191 199 207 205 209 214 210 220 229 225 232 248 252 257 261 261 264 258 136 110 98 67 32 18 8 354 348 348 344 336 332 333 333 332 332 329 324 321 318 315 315 317 318 317 317 317 316 315 313 311 311 310 309 308 306 304 302 300 298 298 298 297 295 294 293 293
198 181 209 225 187 169 209 229 212 214 216 171 153 188 213 207 212 193 177 201 207 195 197 207 221 224 213 212 223 227 233 244 246 248 258 265 261 170 121 108 86 63 59 52 18 348 342 340 336 329 327 328 330 329 328 326 321 316 313 313 316 320 320 319 319 318 316 314 313 312 312 311 310 309 306 305 303 300 298 298 297 295 294 293 292 291
216 197 205 232 224 188 205 232 208 174 203 187 177 196 215 228 239 220 195 202 210 205 208 215 227 231 213 200 212 229 238 241 242 246 250 247 202 138 118 91 68 72 77 65 357 336 336 335 331 327 324 324 326 325 324 324 320 312 310 314 319 320 320 320 319 317 315 314 313 312 312 311 310 309 308 307 305 301 298 297 296 294 294 292 290 288
227 223 219 233 253 253 243 243 249 264 254 221 201 205 214 230 244 236 219 223 225 222 222 217 218 222 210 198 205 225 236 238 247 253 238 191 144 128 111 85 78 78 64 14 339 329 328 328 326 324 321 319 320 322 323 322 317 310 311 317 320 320 320 319 318 316 314 313 312 312 312 311 310 310 308 306 304 299 296 296 294 293 292 291 288 286
238 241 241 238 250 260 252 232 234 248 248 237 230 230 230 237 243 235 227 231 230 226 224 215 210 210 202 192 195 216 231 235 245 249 222 160 142 127 104 97 93 80 25 345 331 323 324 325 323 320 316 313 316 321 321 319 317 314 315 318 320 321 320 318 317 315 313 312 313 313 313 311 309 307 306 305 303 300 297 295 293 291 290 288 287 286
228 228 235 234 237 244 245 237 238 245 248 245 241 239 239 242 242 236 232 228 221 220 219 210 202 194 188 193 200 211 226 231 230 228 200 151 139 123 109 107 102 72 330 320 319 319 321 320 315 312 309 307 313 318 319 317 318 317 318 319 320 321 320 317 316 313 311 311 313 312 310 308 305 304 304 303 302 300 297 295 293 289 286 284 284 283
234 235 239 236 238 248 249 237 240 254 260 254 246 242 242 242 241 243 243 235 227 224 210 196 191 182 182 197 199 199 216 221 201 182 177 170 155 129 116 108 69 301 306 310 312 313 315 312 308 306 304 306 313 318 317 316 316 317 318 320 321 322 320 316 314 311 310 311 310 308 306 305 304 304 303 301 300 298 295 294 292 289 286 285 283 281
238 245 249 248 248 254 248 231 226 242 253 250 245 240 238 237 239 244 244 240 237 227 195 178 184 184 183 193 187 182 201 206 176 159 169 170 155 142 147 238 289 295 301 306 308 309 309 306 304 304 305 309 315 318 315 314 315 318 321 322 323 323 319 315 313 311 310 309 307 304 305 305 304 303 302 301 300 298 296 295 292 290 289 289 288 287
232 237 238 238 243 247 245 231 218 225 241 246 245 243 235 223 222 230 234 234 233 218 187 177 186 191 191 195 188 182 187 182 164 157 157 153 158 171 207 258 283 295 300 303 307 308 305 302 303 305 307 311 314 313 311 312 315 319 322 323 323 322 317 314 313 310 307 306 304 304 305 304 303 303 302 300 299 299 298 297 296 293 291 290 291 293